Location: Rounton
(54.4000°N, 1.3500°W)
Time: 23:44:13
(UTC+00:00)

Vanguard 1 - All Passes

Search period start: 29 November 2021 00:00
Search period end: 09 December 2021 00:00
Orbit: 653 x 3830 km, 34.3° (Epoch: 29 November)

Date Brightness Start Highest point End Pass type
(mag) Time Alt. Az. Time Alt. Az. Time Alt. Az.
29 Nov - 01:14:37 10° SW 01:33:24 33° SSE 01:48:06 10° ESE visible
29 Nov - 03:37:15 10° WSW 03:55:48 37° S 04:08:20 10° SE visible
29 Nov - 06:03:12 10° WSW 06:16:31 25° SSW 06:25:35 10° SSE visible
29 Nov - 23:16:17 10° S 23:31:44 23° SE 23:45:49 10° E visible
30 Nov - 01:34:33 10° SW 01:54:01 36° SSE 02:09:00 10° ESE visible
30 Nov - 03:58:03 10° WSW 04:16:21 37° SSW 04:28:43 10° SE visible
30 Nov - 06:24:45 10° W 06:36:38 22° SW 06:45:05 10° S visible
30 Nov - 23:34:58 10° SSW 23:52:04 28° SSE 00:07:29 10° E visible
01 Dec - 01:54:45 10° SW 02:14:40 39° S 02:29:46 10° ESE visible
01 Dec - 04:18:59 10° WSW 04:36:50 35° SSW 04:48:57 10° SE visible
01 Dec - 06:46:41 10° W 06:56:38 18° SW 07:04:06 10° S visible
01 Dec - 21:41:24 10° SSE 21:51:12 15° SE 22:01:01 10° ESE night (unlit)
01 Dec - 23:54:12 10° SSW 00:12:29 32° SSE 00:28:48 10° ESE visible
02 Dec - 02:15:11 10° WSW 02:35:19 40° S 02:50:25 10° ESE visible
02 Dec - 04:40:04 10° WSW 04:57:13 32° SSW 05:09:00 10° SSE visible
02 Dec - 07:09:25 10° WSW 07:16:29 14° SW 07:22:16 10° SSW visible
02 Dec - 21:58:06 10° S 22:11:12 19° SE 22:24:23 10° E visible
03 Dec - 00:13:51 10° SW 00:33:00 35° SSE 00:49:53 10° ESE visible
03 Dec - 02:35:48 10° WSW 02:55:56 40° S 03:10:56 10° ESE visible
03 Dec - 05:01:19 10° W 05:17:30 29° SSW 05:28:51 10° SSE visible
03 Dec - 22:16:09 10° S 22:31:19 24° SE 22:46:38 10° E visible
04 Dec - 00:33:49 10° SW 00:53:34 38° SSE 01:10:48 10° ESE visible
04 Dec - 02:56:34 10° WSW 03:16:32 39° SSW 03:31:20 10° SE visible
04 Dec - 05:22:48 10° W 05:37:39 25° SW 05:48:24 10° S visible
04 Dec - 22:34:58 10° SSW 22:51:32 28° SE 23:08:19 10° E visible
05 Dec - 00:54:01 10° SW 01:14:12 40° S 01:31:36 10° ESE visible
05 Dec - 03:17:28 10° WSW 03:37:04 38° SSW 03:51:35 10° SE visible
05 Dec - 05:44:35 10° W 05:57:39 21° SW 06:07:31 10° S visible
05 Dec - 20:42:01 10° SSE 20:51:03 14° SE 21:00:41 10° ESE visible
05 Dec - 22:54:17 10° SSW 23:11:52 32° SSE 23:29:40 10° E visible
06 Dec - 01:14:26 10° WSW 01:34:50 42° S 01:52:17 10° ESE visible
06 Dec - 03:38:31 10° WSW 03:57:30 35° SSW 04:11:40 10° SE visible
06 Dec - 06:06:57 10° W 06:17:32 17° SW 06:26:00 10° SSW visible
06 Dec - 20:58:50 10° S 21:10:55 19° SE 21:24:09 10° E visible
06 Dec - 23:13:58 10° SSW 23:32:17 36° SSE 23:50:49 10° ESE visible
07 Dec - 01:35:01 10° WSW 01:55:29 42° S 02:12:51 10° ESE visible
07 Dec - 03:59:42 10° W 04:17:49 32° SSW 04:31:31 10° SSE visible
07 Dec - 06:30:36 10° WSW 06:37:16 13° SW 06:43:05 10° SW visible
07 Dec - 21:17:00 10° S 21:30:54 24° SE 21:46:28 10° E visible
07 Dec - 23:33:56 10° SW 23:52:48 39° SSE 00:11:47 10° ESE visible
08 Dec - 01:55:44 10° WSW 02:16:06 41° S 02:33:16 10° SE visible
08 Dec - 04:21:07 10° W 04:38:00 28° SW 04:51:04 10° SSE visible
08 Dec - 21:35:54 10° SSW 21:51:00 28° SE 22:08:13 10° E visible
